Regional Weather Roundup
Issued by NWS Upton, NY

Current Version | Previous Version | Text Only | Print | Product List | Glossary On
Versions: 1 2 3 4 5 6 7 8 9 10 11 12 13 14 15 16 17 18 19 20 21 22 23 24 25 26 27 28 29 30 31 32 33 34 35 36 37 38 39 40 41 42 43 44 45 46 47 48 49 50
000 ASUS41 KOKX 240305 RWROKX Regional Weather Roundup National Weather Service New York NY 1100 PM EDT WED MAY 23 2018 Note: "FAIR" indicates few or no clouds below 12,000 feet with no significant weather and/or obstructions to visibility. NYZ071-072-176-178-NJZ106-104-240400- New York City Metro Area CITY SKY/WX TMP DP RH WIND PRES REMARKS Central Park FAIR 74 50 42 W5 30.03R Bronx Bot Gard N/A 72 48 43 NW1 30.01S Bronx Lehman C N/A 73 50 43 NW7 N/A LaGuardia Arpt FAIR 76 49 38 W13 29.99R Queens College N/A 75 48 38 NW7 N/A Kennedy Intl FAIR 75 50 41 W10 30.00R Breezy Point N/A 70 N/A N/A W8 N/A Brooklyn Coll N/A 73 50 43 W7 N/A Staten Island N/A 72 52 49 W3 N/A Newark/Liberty FAIR 73 51 46 W10 30.00R Teterboro FAIR 71 51 49 NW5 29.99R $$ NYZ177-179-078>081-240400- Long Island New York CITY SKY/WX TMP DP RH WIND PRES REMARKS Jones Beach N/A 73 N/A N/A W6 N/A Wantagh N/A 70 55 60 W5 N/A Hempstead N/A 73 52 46 W2 30.02S Matinecock Pt N/A 68 N/A N/A SW7 N/A Farmingdale FAIR 70 53 54 NW5 29.99R MacArthur/ISP FAIR 69 55 60 W7 29.98R Stony Brook N/A 70 54 56 NW2 N/A Shirley FAIR 64 57 78 W3 29.98R Mt Sinai Harb N/A 72 N/A N/A W6 N/A Westhampton FAIR 56 50 80 CALM 29.99R East Hampton FAIR 59 53 79 CALM 29.96S Southold N/A 66 54 63 W7 N/A Montauk N/A 67 50 54 W9 29.97R $$ NYZ052-065-067-240400- Hudson Valley CITY SKY/WX TMP DP RH WIND PRES REMARKS White Plains FAIR 63 54 72 NW5 30.00R Larchmont Harb N/A 72 N/A N/A W7 N/A Croton On Huds N/A 70 N/A N/A CALM N/A Somers N/A 64 50 59 NW3 N/A Brewster N/A 57 50 77 NW1 N/A Newburgh CLEAR 66 52 59 W6 30.03R Montgomery FAIR 59 52 77 CALM 30.02R Otisville N/A 64 50 59 NW5 N/A Warwick N/A 57 57 100 SE1 N/A Suffern N/A 70 48 46 NW2 N/A Poughkeepsie FAIR 59 51 75 CALM 30.00R Albany FAIR 67 51 56 NW10 30.01S $$ NJZ001-105-106-008-010-013-015-019>022-104-240400- New Jersey CITY SKY/WX TMP DP RH WIND PRES REMARKS Newark/Liberty FAIR 73 51 46 W10 30.00R Teterboro FAIR 71 51 49 NW5 29.99R Caldwell FAIR 64 54 69 CALM 30.02R Somerville FAIR 58 57 97 CALM 30.01R Linden FAIR 70 51 51 NW5 30.01R Perth Amboy N/A 70 N/A N/A W7 N/A Sussex FAIR 58 55 90 SW3 30.03R Andover N/A 58 56 93 CALM 30.05R Trenton FAIR 68 54 60 W3 30.02S Millville FAIR 62 57 83 W7 30.05R Atlantic City FAIR 66 60 81 CALM 30.04R Wrightstown NOT AVBL Toms River FAIR 61 57 87 CALM 30.03S Belmar FAIR 66 56 70 SW5 30.03R $$ PAZ047>061-062-071-240400- Eastern Pennsylvania CITY SKY/WX TMP DP RH WIND PRES REMARKS Philadelphia FAIR 69 55 60 W6 30.04S Allentown FAIR 64 52 64 W5 30.04S Scranton FAIR 57 55 93 CALM 30.08R $$ CTZ002-004>006-009-010-012-RIZ004-006-007-MAZ004-011-015-240400- Southern New England In CT CITY SKY/WX TMP DP RH WIND PRES REMARKS Bradley Intl FAIR 69 48 47 NW12 29.99R Hartford FAIR 73 47 39 NW8 29.98R Danbury FAIR 57 54 89 SW3 30.02R Wtrbury/Oxford FAIR 63 48 58 N6 30.02R Norwalk Harbor N/A 68 N/A N/A NW8 N/A Bridgeport FAIR 68 54 60 CALM 29.98R Meriden FAIR 60 51 72 CALM 29.99R New Haven FAIR 71 48 43 NW3 29.98R Chester FAIR 72 43 35 N9 29.99R Groton FAIR 68 49 50 NW9 29.95R Willimantic FAIR 70 49 47 W7 29.97R In RI CITY SKY/WX TMP DP RH WIND PRES REMARKS Providence FAIR 69 52 54 NE7 29.95R Block Island FAIR 66 51 58 W10 29.95R Westerly FAIR 70 51 51 NW5 29.95R In MA CITY SKY/WX TMP DP RH WIND PRES REMARKS Boston FAIR 64 54 69 NE14 29.96S Worcester MOCLDY 67 50 54 N5 30.00R Westfield FAIR 66 52 60 NW9 29.99R Provincetown CLOUDY 59 54 83 NE8 29.95S Nantucket MOCLDY 57 57 100 SW8 29.91F $$ ANZ330-335-338-340-345-350-353-355-240400- Coastal Marine Observations STATION/POSITION TIME SKY/WX TEMP WIND PRES VSBY WAVE AIR SEA DIR/SP/G HT/PER (UTC) (F) (DEG/KT/KT) (MB) (MI) (FT/S) NY Harb Entrance 0250 64 60 250/ 6/ 8 1015.6 2/ 6 20 S Fire Island 0250 60 56 250/ 10/ 10 1015.4 2/ 8 23 SSW Montauk P 0250 58 55 250/ 8/ 8 1014.7 2/ 7 15 E Barnegat Li 0230 63 N/A 3/ 8 Hudson Canyon 0250 58 55 270/ 8/ 10 1015.3 3/ 7 Kings Point 0236 69 57 360/ 8/ 9 1016.5 Execution Rocks NOT AVBL Western LI Sound NOT AVBL Central LI Sound 0215 62 280/ 6/ 8 N/A 1 Robbins Reef 0236 75 290/ 9/ 10 1016.3 $$ >>>>>>>>>>>>>>>>>>>>>>>>>>>> KEY <<<<<<<<<<<<<<<<<<<<<<<<<<< > < > SKY/WX - Sky Condition/Present Weather < > TMP - Temperature in Fahrenheit < > DP - Dew Point in Fahrenheit < > RH - Relative Humidity in Percent < > WIND - Direction (from) and Speed in MPH < > PRES - Mean Sea Level Pressure (inches of Hg) < > WCI - Wind Chill Index < > VSB - Visibility in Miles < > HX - Heat Index < > TC - Temperature in Celsius < > VRB - Varibale Wind Direction < > < >>>>>>>>>>>>>>>>>>>>>>>>>>>> KEY <<<<<<<<<<<<<<<<<<<<<<<<<<<

USA.gov is the U.S. government's official web portal to all federal, state and local government web resources and services.